Location: Lafig�re
(44.4503°N, 4.0357°E)
Time: 18:35:08
(UTC+00:00)

BREEZE-M R/B - Visible Passes

Search period start: 26 January 2021 00:00
Search period end: 05 February 2021 00:00
Orbit: 319 x 22972 km, 49.2° (Epoch: 25 January)

Date Brightness Start Highest point End Pass type
(mag) Time Alt. Az. Time Alt. Az. Time Alt. Az.
26 Jan 7.3 05:55:52 10° SW 08:06:49 78° NNW 08:16:03 10° ENE visible
27 Jan 9.4 00:40:33 10° SSE 03:44:55 57° SE 04:11:14 10° ENE visible
28 Jan 7.9 03:46:18 10° SSW 06:50:49 88° NNW 07:03:20 10° ENE visible
28 Jan 9.5 23:46:48 10° SSE 02:24:50 44° ESE 02:56:57 10° ENE visible
30 Jan 8.5 02:10:08 10° SSW 05:33:29 80° SE 05:50:21 10° ENE visible
30 Jan 9.7 23:06:26 10° SE 01:06:04 32° ESE 01:41:04 10° ENE visible
31 Jan 6.9 07:12:04 10° WSW 08:33:49 74° N 08:41:23 10° E visible
01 Feb 9.1 00:52:08 10° S 04:14:27 68° SE 04:37:02 10° ENE visible
01 Feb 9.9 22:39:32 10° ESE 23:49:47 20° E 00:21:12 10° ENE visible
02 Feb 7.5 04:38:03 10° SW 07:18:11 80° NNW 07:28:30 10° ENE visible
02 Feb 9.4 23:47:56 10° SSE 02:54:01 55° SE 03:23:10 10° ENE visible
04 Feb 8.1 02:40:41 10° SSW 06:01:24 90° NNW 06:15:25 10° ENE visible
